Weather History for Hutchinson, MN

Change the Weather History Date:

Monday, March 10, 2014

  Actual Average Record
Temperature  
Mean Temperature 38 °F -  
Max Temperature 43 °F 37 °F 60 °F (2012)
Min Temperature 33 °F 19 °F -14 °F (2003)
Degree Days  
Heating Degree Days 27    
Moisture  
Dew Point 34 °F    
Average Humidity 83    
Maximum Humidity 92    
Minimum Humidity 73    
Precipitation  
Precipitation 0.00 in - - ()
Sea Level Pressure  
Sea Level Pressure 29.68 in    
Wind  
Wind Speed 7 mph (West)    
Max Wind Speed 15 mph    
Max Gust Speed 16 mph    
Visibility 10 miles    
Events      
Averages and records for this station are not official NWS values.
T = Trace of Precipitation, MM = Missing Value Source: NWS Daily Summary

Daily Weather History Graph

Daily Weather History Graph

Search for Another Location

Airport:

Trip Planner

Search our weather history database for the weather conditions in past years. The results will help you decide how hot, cold, wet, or windy it might be!

Date:

Astronomy

Mar. 10, 2014 Rise Set
Actual Time 7:39 AM CDT 7:17 PM CDT
Civil Twilight 7:09 AM CDT 7:46 PM CDT
Nautical Twilight 6:36 AM CDT 8:20 PM CDT
Astronomical Twilight 6:01 AM CDT 8:54 PM CDT
Moon 1:51 PM CDT (3/10) 4:01 AM CDT (3/10)
Length of Visible Light 12h 36m
Length of Day
11h 38m
Waxing Gibbous, 70% of the Moon is Illuminated
Mar 10
Waxing Gibbous
Mar 16
Full
Mar 23
Last Quarter
Mar 30
New
Apr 7
First Quarter

Hourly Weather History & Observations

Time (CDT) Temp. Windchill Dew Point Humidity Pressure Visibility Wind Dir Wind Speed Gust Speed Precip Events Conditions
12:13 AM 40.1 °F 36.9 °F 34.7 °F 81% 29.66 in 10.0 mi SW 4.6 mph - N/A   Scattered Clouds
12:33 AM 39.6 °F 36.3 °F 34.5 °F 82% 29.65 in 10.0 mi SW 4.6 mph - N/A   Clear
12:53 AM 38.8 °F 35.4 °F 34.0 °F 83% 29.65 in 10.0 mi WSW 4.6 mph - N/A   Clear
1:13 AM 39.4 °F 34.5 °F 34.5 °F 83% 29.64 in 10.0 mi SW 6.9 mph - N/A   Clear
1:33 AM 37.6 °F 31.6 °F 33.6 °F 86% 29.65 in 10.0 mi WSW 8.1 mph - N/A   Clear
1:53 AM 37.2 °F 32.6 °F 33.6 °F 87% 29.65 in 10.0 mi West 5.8 mph - N/A   Clear
2:13 AM 36.7 °F 31.2 °F 33.3 °F 87% 29.65 in 10.0 mi West 6.9 mph - N/A   Clear
2:33 AM 36.7 °F 31.2 °F 33.1 °F 87% 29.65 in 10.0 mi West 6.9 mph - N/A   Clear
2:53 AM 37.8 °F 34.2 °F 33.3 °F 84% 29.65 in 10.0 mi WSW 4.6 mph - N/A   Clear
3:13 AM 38.3 °F 32.5 °F 33.3 °F 82% 29.64 in 10.0 mi WSW 8.1 mph - N/A   Clear
3:33 AM 38.8 °F 33.2 °F 33.6 °F 82% 29.64 in 10.0 mi WSW 8.1 mph - N/A   Clear
3:53 AM 38.1 °F 30.7 °F 33.1 °F 82% 29.64 in 10.0 mi West 11.5 mph - N/A   Clear
4:13 AM 37.6 °F 30.5 °F 33.1 °F 84% 29.64 in 10.0 mi West 10.4 mph - N/A   Clear
4:33 AM 36.9 °F 30.1 °F 32.5 °F 84% 29.63 in 10.0 mi West 9.2 mph - N/A   Clear
4:53 AM 36.5 °F 29.7 °F 32.5 °F 86% 29.63 in 10.0 mi West 9.2 mph - N/A   Clear
5:13 AM 37.4 °F 30.3 °F 33.1 °F 84% 29.63 in 10.0 mi West 10.4 mph - N/A   Clear
5:33 AM 38.5 °F 31.6 °F 33.4 °F 82% 29.64 in 10.0 mi West 10.4 mph - N/A   Clear
5:53 AM 37.4 °F 30.8 °F 32.9 °F 84% 29.64 in 10.0 mi West 9.2 mph - N/A   Clear
6:13 AM 37.0 °F 29.8 °F 32.9 °F 85% 29.64 in 10.0 mi West 10.4 mph - N/A   Clear
6:33 AM 37.6 °F 30.5 °F 33.1 °F 84% 29.65 in 10.0 mi West 10.4 mph - N/A   Clear
6:53 AM 36.7 °F 30.5 °F 32.7 °F 86% 29.64 in 10.0 mi West 8.1 mph - N/A   Clear
7:13 AM 34.3 °F 27.7 °F 31.8 °F 90% 29.65 in 10.0 mi West 8.1 mph - N/A   Clear
7:33 AM 35.6 °F 29.2 °F 32.0 °F 87% 29.64 in 10.0 mi West 8.1 mph - N/A   Clear
7:53 AM 33.3 °F 27.1 °F 31.1 °F 92% 29.65 in 10.0 mi West 6.9 mph - N/A   Clear
8:13 AM 34.5 °F 27.9 °F 31.6 °F 89% 29.66 in 10.0 mi West 8.1 mph - N/A   Clear
8:33 AM 36.1 °F 29.3 °F 32.2 °F 86% 29.67 in 10.0 mi West 9.2 mph - N/A   Clear
8:53 AM 37.4 °F 30.8 °F 32.9 °F 84% 29.67 in 10.0 mi West 9.2 mph - N/A   Clear
9:13 AM 37.6 °F 31.0 °F 33.1 °F 84% 29.67 in 10.0 mi West 9.2 mph - N/A   Clear
9:33 AM 37.4 °F 31.4 °F 33.3 °F 85% 29.67 in 10.0 mi West 8.1 mph - N/A   Clear
9:53 AM 38.3 °F 31.9 °F 33.8 °F 84% 29.68 in 10.0 mi West 9.2 mph - N/A   Clear
10:13 AM 39.4 °F 32.3 °F 34.2 °F 82% 29.69 in 10.0 mi West 11.5 mph - N/A   Clear
10:33 AM 41.5 °F 35.0 °F 34.9 °F 77% 29.69 in 10.0 mi West 11.5 mph - N/A   Clear
10:53 AM 42.8 °F 37.0 °F 35.4 °F 75% 29.70 in 10.0 mi WNW 10.4 mph 16.1 mph N/A   Clear
11:12 AM 42.8 °F 37.5 °F 35.4 °F 75% 29.70 in 10.0 mi West 9.2 mph - N/A   Clear
11:33 AM 41.5 °F 33.8 °F 35.1 °F 78% 29.70 in 10.0 mi West 15.0 mph - N/A   Clear
11:53 AM 41.9 °F 35.9 °F 35.1 °F 77% 29.70 in 10.0 mi West 10.4 mph - N/A   Clear
12:13 PM 43.2 °F 38.4 °F 35.6 °F 75% 29.70 in 10.0 mi WNW 8.1 mph - N/A   Clear
12:33 PM 43.3 °F 38.6 °F 35.6 °F 74% 29.70 in 10.0 mi West 8.1 mph - N/A   Clear
12:53 PM 42.8 °F 38.6 °F 35.6 °F 76% 29.71 in 10.0 mi West 6.9 mph - N/A   Clear
1:13 PM 43.0 °F 39.5 °F 35.6 °F 75% 29.70 in 10.0 mi WNW 5.8 mph - N/A   Clear
1:33 PM 42.4 °F 37.5 °F 35.4 °F 76% 29.70 in 10.0 mi West 8.1 mph - N/A   Clear
1:53 PM 43.9 °F 39.3 °F 35.6 °F 73% 29.70 in 10.0 mi WNW 8.1 mph - N/A   Clear
2:13 PM 41.4 °F 35.7 °F 34.9 °F 78% 29.69 in 10.0 mi West 9.2 mph - N/A   Clear
2:32 PM 41.5 °F 35.4 °F 35.1 °F 78% 29.69 in 10.0 mi West 10.4 mph - N/A   Clear
2:53 PM 40.1 °F 35.3 °F 34.9 °F 82% 29.67 in 10.0 mi West 6.9 mph - N/A   Clear
3:13 PM 40.1 °F 35.3 °F 35.1 °F 82% 29.67 in 10.0 mi WSW 6.9 mph - N/A   Clear
3:33 PM 41.0 °F 37.1 °F 35.8 °F 82% 29.67 in 10.0 mi WSW 5.8 mph - N/A   Clear
3:53 PM 39.7 °F 34.3 °F 35.2 °F 84% 29.68 in 10.0 mi West 8.1 mph - N/A   Clear
4:13 PM 39.4 °F 33.8 °F 35.6 °F 86% 29.69 in 10.0 mi WSW 8.1 mph - N/A   Clear
4:33 PM 39.9 °F 33.4 °F 36.5 °F 88% 29.69 in 10.0 mi West 10.4 mph - N/A   Clear
4:53 PM 40.3 °F 34.4 °F 36.5 °F 86% 29.69 in 10.0 mi West 9.2 mph - N/A   Clear
5:13 PM 41.0 °F 35.2 °F 36.9 °F 85% 29.69 in 10.0 mi West 9.2 mph - N/A   Clear
5:33 PM 40.6 °F 35.4 °F 37.0 °F 87% 29.69 in 10.0 mi West 8.1 mph - N/A   Clear
5:53 PM 41.9 °F 36.9 °F 37.4 °F 84% 29.69 in 10.0 mi WNW 8.1 mph - N/A   Clear
6:13 PM 42.1 °F 37.7 °F 37.0 °F 82% 29.69 in 10.0 mi NW 6.9 mph - N/A   Clear
6:33 PM 41.2 °F 37.3 °F 37.0 °F 85% 29.70 in 10.0 mi WNW 5.8 mph - N/A   Clear
6:53 PM 40.6 °F 36.7 °F 36.3 °F 85% 29.70 in 10.0 mi NW 5.8 mph - N/A   Scattered Clouds
7:13 PM 41.0 °F 39.0 °F 36.7 °F 85% 29.69 in 10.0 mi WNW 3.5 mph - N/A   Overcast
7:32 PM 40.3 °F 38.2 °F 35.8 °F 84% 29.70 in 10.0 mi WNW 3.5 mph - N/A   Overcast
7:53 PM 37.9 °F 35.5 °F 35.1 °F 89% 29.71 in 10.0 mi West 3.5 mph - N/A   Overcast
8:13 PM 37.6 °F 34.0 °F 34.7 °F 89% 29.71 in 10.0 mi NW 4.6 mph - N/A   Overcast
8:33 PM 39.9 °F 35.1 °F 35.6 °F 85% 29.72 in 10.0 mi NW 6.9 mph - N/A   Overcast
8:53 PM 38.3 °F 33.2 °F 34.7 °F 87% 29.72 in 10.0 mi NNW 6.9 mph - N/A   Overcast
9:12 PM 38.5 °F 32.7 °F 34.7 °F 86% 29.71 in 10.0 mi NNW 8.1 mph - N/A   Overcast
9:33 PM 41.0 °F 33.9 °F 34.3 °F 77% 29.70 in 10.0 mi NNW 12.7 mph - N/A   Overcast
9:53 PM 41.2 °F 36.6 °F 34.3 °F 77% 29.70 in 10.0 mi North 6.9 mph - N/A   Overcast
10:13 PM 39.2 °F 35.9 °F 34.0 °F 82% 29.71 in 10.0 mi WSW 4.6 mph - N/A   Overcast
10:33 PM 39.0 °F - 33.6 °F 81% 29.72 in 10.0 mi Calm Calm - N/A   Overcast
10:53 PM 38.5 °F 35.0 °F 33.8 °F 83% 29.72 in 10.0 mi WSW 4.6 mph - N/A   Overcast
11:13 PM 36.0 °F - 33.3 °F 90% 29.72 in 10.0 mi Calm Calm - N/A   Overcast
11:33 PM 36.7 °F - 33.8 °F 89% 29.72 in 10.0 mi Calm Calm - N/A   Overcast
11:53 PM 36.5 °F - 33.8 °F 90% 29.72 in 10.0 mi Calm Calm - N/A   Overcast